| time (UTC) | temp C | wind direction | speed KPH | gust KPH | rain 1hr cm | rain 24hr cm | rain mn cm | humidity % | barometer mb |
| 20260903202802 | 38 | 131 | 1.6 | 8.0 | 0.00 | 0.00 | 0.00 | 32 | 1013.1 |
| 20260903202301 | 38 | 302 | 1.6 | 8.0 | 0.00 | 0.00 | 0.00 | 31 | 1013.2 |
| 20260903201802 | 38 | 125 | 0.0 | 0.0 | 0.00 | 0.00 | 0.00 | 34 | 1013.2 |
| 20260903201301 | 37 | 78 | 4.8 | 0.0 | 0.00 | 0.00 | 0.00 | 34 | 1013.2 |
| 20260903200802 | 36 | 287 | 8.0 | 20.9 | 0.00 | 0.00 | 0.00 | 34 | 1013.4 |
| 20260903200301 | 36 | 122 | 4.8 | 20.9 | 0.00 | 0.00 | 0.00 | 33 | 1013.5 |
| 20260903195802 | 37 | 108 | 4.8 | 9.7 | 0.00 | 0.00 | 0.00 | 33 | 1013.5 |
| 20260903195306 | 37 | 190 | 8.0 | 8.0 | 0.00 | 0.00 | 0.00 | 34 | 1013.5 |
| 20260903194801 | 37 | 128 | 8.0 | 11.3 | 0.00 | 0.00 | 0.00 | 34 | 1014.1 |
| 20260903193801 | 38 | 303 | 1.6 | 12.9 | 0.00 | 0.00 | 0.00 | 34 | 1014.5 |
| 20260903193302 | 37 | 145 | 1.6 | 8.0 | 0.00 | 0.00 | 0.00 | 35 | 1014.5 |
| 20260903192802 | 36 | 149 | 1.6 | 3.2 | 0.00 | 0.00 | 0.00 | 37 | 1014.2 |
| 20260903192301 | 37 | 212 | 3.2 | 3.2 | 0.00 | 0.00 | 0.00 | 36 | 1014.1 |
| 20260903191802 | 36 | 75 | 3.2 | 8.0 | 0.00 | 0.00 | 0.00 | 36 | 1014.1 |
| 20260903191302 | 36 | 168 | 3.2 | 8.0 | 0.00 | 0.00 | 0.00 | 37 | 1014.1 |
| 20260903190802 | 36 | 167 | 4.8 | 9.7 | 0.00 | 0.00 | 0.00 | 38 | 1014.3 |
| 20260903190301 | 35 | 122 | 8.0 | 9.7 | 0.00 | 0.00 | 0.00 | 37 | 1014.4 |
| 20260903185802 | 35 | 195 | 8.0 | 9.7 | 0.00 | 0.00 | 0.00 | 36 | 1014.4 |
| 20260903185301 | 35 | 145 | 6.4 | 22.5 | 0.00 | 0.00 | 0.00 | 36 | 1014.4 |
| 20260903184801 | 35 | 36 | 4.8 | 22.5 | 0.00 | 0.00 | 0.00 | 39 | 1014.4 |
| 20260903184302 | 35 | 325 | 8.0 | 9.7 | 0.00 | 0.00 | 0.00 | 40 | 1014.4 |
| 20260903183802 | 35 | 104 | 8.0 | 22.5 | 0.00 | 0.00 | 0.00 | 40 | 1014.4 |
| 20260903182803 | 34 | 208 | 8.0 | 14.5 | 0.00 | 0.00 | 0.00 | 43 | 1014.7 |
| 20260903182301 | 32 | 122 | 8.0 | 14.5 | 0.00 | 0.00 | 0.00 | 42 | 1014.8 |
| 20260903181802 | 33 | 125 | 8.0 | 8.0 | 0.00 | 0.00 | 0.00 | 43 | 1014.8 |
| 20260903181302 | 33 | 235 | 6.4 | 9.7 | 0.00 | 0.00 | 0.00 | 44 | 1014.8 |
| 20260903180302 | 32 | 32 | 6.4 | 0.0 | 0.00 | 0.00 | 0.00 | 46 | 1014.9 |
| 20260903175802 | 32 | 325 | 8.0 | 22.5 | 0.00 | 0.00 | 0.00 | 46 | 1014.9 |
| 20260903175305 | 32 | 10 | 8.0 | 22.5 | 0.00 | 0.00 | 0.00 | 46 | 1014.9 |
| 20260903174801 | 32 | 175 | 9.7 | 22.5 | 0.00 | 0.00 | 0.00 | 46 | 1015.2 |
| 20260903173802 | 32 | 149 | 8.0 | 16.1 | 0.00 | 0.00 | 0.00 | 47 | 1015.3 |
| 20260903172801 | 32 | 322 | 9.7 | 20.9 | 0.00 | 0.00 | 0.00 | 46 | 1015.4 |
| 20260903171802 | 32 | 49 | 9.7 | 14.5 | 0.00 | 0.00 | 0.00 | 47 | 1015.4 |
| 20260903171302 | 31 | 302 | 8.0 | 11.3 | 0.00 | 0.00 | 0.00 | 47 | 1015.4 |
| 20260903170802 | 32 | 108 | 8.0 | 12.9 | 0.00 | 0.00 | 0.00 | 47 | 1015.1 |
| 20260903170302 | 31 | 100 | 9.7 | 12.9 | 0.00 | 0.00 | 0.00 | 48 | 1014.9 |
| 20260903165305 | 31 | 100 | 9.7 | 12.9 | 0.00 | 0.00 | 0.00 | 49 | 1014.9 |
| 20260903164802 | 31 | 69 | 11.3 | 22.5 | 0.00 | 0.00 | 0.00 | 49 | 1015.4 |
| 20260903164301 | 31 | 78 | 8.0 | 16.1 | 0.00 | 0.00 | 0.00 | 49 | 1015.7 |
| 20260903163802 | 31 | 117 | 8.0 | 16.1 | 0.00 | 0.00 | 0.00 | 50 | 1015.7 |
| 20260903163302 | 31 | 168 | 8.0 | 22.5 | 0.00 | 0.00 | 0.00 | 50 | 1015.7 |
| 20260903162801 | 31 | 139 | 9.7 | 14.5 | 0.00 | 0.00 | 0.00 | 51 | 1015.6 |
| 20260903162306 | 31 | 145 | 9.7 | 16.1 | 0.00 | 0.00 | 0.00 | 51 | 1015.5 |
| 20260903161802 | 31 | 45 | 8.0 | 19.3 | 0.00 | 0.00 | 0.00 | 51 | 1015.5 |
| 20260903161302 | 30 | 302 | 8.0 | 16.1 | 0.00 | 0.00 | 0.00 | 51 | 1015.5 |
| 20260903160802 | 30 | 73 | 9.7 | 20.9 | 0.00 | 0.00 | 0.00 | 52 | 1015.6 |
| 20260903160301 | 30 | 122 | 9.7 | 32.2 | 0.00 | 0.00 | 0.00 | 51 | 1015.7 |
| 20260903155802 | 30 | 114 | 11.3 | 19.3 | 0.00 | 0.00 | 0.00 | 53 | 1015.7 |
| 20260903154802 | 30 | 100 | 9.7 | 20.9 | 0.00 | 0.00 | 0.00 | 53 | 1015.7 |
| 20260903154302 | 30 | 100 | 8.0 | 20.9 | 0.00 | 0.00 | 0.00 | 54 | 1015.7 |
| 20260903153802 | 30 | 100 | 8.0 | 19.3 | 0.00 | 0.00 | 0.00 | 57 | 1015.7 |
| 20260903153302 | 30 | 100 | 8.0 | 11.3 | 0.00 | 0.00 | 0.00 | 57 | 1015.7 |
| 20260903152802 | 29 | 100 | 4.8 | 12.9 | 0.00 | 0.00 | 0.00 | 58 | 1015.7 |
| 20260903152301 | 29 | 145 | 4.8 | 20.9 | 0.00 | 0.00 | 0.00 | 59 | 1015.7 |
| 20260903151802 | 29 | 55 | 4.8 | 20.9 | 0.00 | 0.00 | 0.00 | 59 | 1015.7 |
| 20260903151302 | 28 | 302 | 8.0 | 16.1 | 0.00 | 0.00 | 0.00 | 59 | 1015.7 |
| 20260903150801 | 28 | 46 | 8.0 | 16.1 | 0.00 | 0.00 | 0.00 | 60 | 1015.7 |
| 20260903150301 | 28 | 100 | 8.0 | 12.9 | 0.00 | 0.00 | 0.00 | 60 | 1015.7 |
| 20260903145802 | 28 | 125 | 4.8 | 19.3 | 0.00 | 0.00 | 0.00 | 60 | 1015.7 |
| 20260903144802 | 28 | 220 | 4.8 | 9.7 | 0.00 | 0.00 | 0.00 | 60 | 1015.7 |
| 20260903144302 | 27 | 145 | 4.8 | 9.7 | 0.00 | 0.00 | 0.00 | 61 | 1015.7 |
| 20260903143802 | 27 | 172 | 3.2 | 9.7 | 0.00 | 0.00 | 0.00 | 61 | 1015.7 |
| 20260903143302 | 27 | 145 | 3.2 | 8.0 | 0.00 | 0.00 | 0.00 | 62 | 1015.7 |
| 20260903142305 | 27 | 145 | 1.6 | 8.0 | 0.00 | 0.00 | 0.00 | 63 | 1015.6 |
| 20260903141802 | 27 | 32 | 1.6 | 4.8 | 0.00 | 0.00 | 0.00 | 65 | 1015.6 |
| 20260903141302 | 27 | 235 | 1.6 | 3.2 | 0.00 | 0.00 | 0.00 | 66 | 1015.6 |
| 20260903140302 | 26 | 122 | 1.6 | 4.8 | 0.00 | 0.00 | 0.00 | 67 | 1015.6 |
| 20260903135802 | 26 | 168 | 3.2 | 4.8 | 0.00 | 0.00 | 0.00 | 67 | 1015.6 |
| 20260903135302 | 26 | 235 | 3.2 | 4.8 | 0.00 | 0.00 | 0.00 | 67 | 1015.6 |
| 20260903134802 | 26 | 130 | 3.2 | 8.0 | 0.00 | 0.00 | 0.00 | 68 | 1015.6 |
| 20260903134302 | 26 | 100 | 3.2 | 4.8 | 0.00 | 0.00 | 0.00 | 69 | 1015.6 |
| 20260903133801 | 26 | 143 | 1.6 | 4.8 | 0.00 | 0.00 | 0.00 | 70 | 1015.6 |
| 20260903133302 | 25 | 145 | 1.6 | 4.8 | 0.00 | 0.00 | 0.00 | 70 | 1015.6 |
| 20260903132801 | 25 | 125 | 0.0 | 0.0 | 0.00 | 0.00 | 0.00 | 70 | 1015.7 |
| 20260903132306 | 25 | 212 | 1.6 | 3.2 | 0.00 | 0.00 | 0.00 | 71 | 1015.7 |
| 20260903131802 | 25 | 123 | 1.6 | 3.2 | 0.00 | 0.00 | 0.00 | 71 | 1015.7 |
| 20260903131302 | 25 | 145 | 1.6 | 4.8 | 0.00 | 0.00 | 0.00 | 71 | 1015.7 |
| 20260903130802 | 25 | 325 | 1.6 | 0.0 | 0.00 | 0.00 | 0.00 | 71 | 1015.6 |
| 20260903130302 | 24 | 100 | 0.0 | 3.2 | 0.00 | 0.00 | 0.00 | 72 | 1015.6 |
| 20260903125305 | 24 | 78 | 1.6 | 0.0 | 0.00 | 0.00 | 0.00 | 73 | 1015.6 |
| 20260903124802 | 24 | 90 | 1.6 | 4.8 | 0.00 | 0.00 | 0.00 | 72 | 1015.5 |
| 20260903124302 | 24 | 145 | 1.6 | 4.8 | 0.00 | 0.00 | 0.00 | 72 | 1015.4 |
| 20260903123302 | 23 | 168 | 0.0 | 0.0 | 0.00 | 0.00 | 0.00 | 73 | 1015.4 |
| 20260903122802 | 23 | 25 | 0.0 | 0.0 | 0.00 | 0.00 | 0.00 | 74 | 1015.6 |
| 20260903122305 | 23 | 145 | 0.0 | 0.0 | 0.00 | 0.00 | 0.00 | 74 | 1015.6 |
| 20260903121802 | 23 | 78 | 0.0 | 0.0 | 0.00 | 0.00 | 0.00 | 74 | 1015.6 |
| 20260903120803 | 23 | 159 | 0.0 | 0.0 | 0.00 | 0.00 | 0.00 | 74 | 1015.2 |
| 20260903120302 | 23 | 168 | 0.0 | 0.0 | 0.00 | 0.00 | 0.00 | 74 | 1015.2 |
| 20260903115802 | 23 | 123 | 0.0 | 0.0 | 0.00 | 0.00 | 0.00 | 74 | 1015.2 |
| 20260903115305 | 23 | 32 | 0.0 | 0.0 | 0.00 | 0.00 | 0.00 | 73 | 1015.2 |
| 20260903113803 | 23 | 119 | 0.0 | 3.2 | 0.00 | 0.00 | 0.00 | 72 | 1015.2 |
| 20260903112802 | 23 | 201 | 0.0 | 3.2 | 0.00 | 0.00 | 0.00 | 72 | 1015.2 |
| 20260903112305 | 23 | 100 | 0.0 | 0.0 | 0.00 | 0.00 | 0.00 | 72 | 1015.2 |
| 20260903111802 | 23 | 100 | 1.6 | 0.0 | 0.00 | 0.00 | 0.00 | 72 | 1015.2 |
| 20260903111302 | 23 | 100 | 1.6 | 0.0 | 0.00 | 0.00 | 0.00 | 72 | 1015.5 |
| 20260903110802 | 23 | 140 | 0.0 | 3.2 | 0.00 | 0.00 | 0.00 | 71 | 1015.4 |
| 20260903110302 | 23 | 100 | 0.0 | 0.0 | 0.00 | 0.00 | 0.00 | 71 | 1015.4 |
| 20260903105802 | 23 | 125 | 0.0 | 0.0 | 0.00 | 0.00 | 0.00 | 71 | 1015.4 |
| 20260903105305 | 23 | 122 | 0.0 | 0.0 | 0.00 | 0.00 | 0.00 | 71 | 1015.4 |
| 20260903062305 | 26 | 212 | 0.0 | 0.0 | 0.00 | 0.00 | 0.00 | 62 | 1015.2 |
| 20260903061802 | 26 | 115 | 1.6 | 4.8 | 0.00 | 0.00 | 0.00 | 62 | 1015.2 |
| 20260903061302 | 26 | 145 | 1.6 | 0.0 | 0.00 | 0.00 | 0.00 | 62 | 1015.2 |
| 20260903055306 | 26 | 212 | 1.6 | 0.0 | 0.00 | 0.00 | 0.00 | 61 | 1015.1 |
| 20260903054802 | 26 | 126 | 1.6 | 4.8 | 0.00 | 0.00 | 0.00 | 61 | 1015.2 |
| 20260903054302 | 26 | 145 | 1.6 | 4.8 | 0.00 | 0.00 | 0.00 | 61 | 1015.2 |
| 20260903053802 | 26 | 118 | 1.6 | 3.2 | 0.00 | 0.00 | 0.00 | 60 | 1015.2 |
| 20260903053302 | 26 | 104 | 1.6 | 4.8 | 0.00 | 0.00 | 0.00 | 60 | 1015.2 |
| 20260903052802 | 26 | 119 | 1.6 | 3.2 | 0.00 | 0.00 | 0.00 | 60 | 1014.9 |
| 20260903052302 | 26 | 122 | 1.6 | 3.2 | 0.00 | 0.00 | 0.00 | 60 | 1014.9 |
| 20260903051801 | 27 | 99 | 3.2 | 4.8 | 0.00 | 0.00 | 0.00 | 60 | 1014.9 |
| 20260903051302 | 27 | 109 | 3.2 | 8.0 | 0.00 | 0.00 | 0.00 | 59 | 1014.9 |
| 20260903050818 | 27 | 121 | 1.6 | 8.0 | 0.00 | 0.00 | 0.00 | 59 | 1015.2 |
| 20260903050302 | 27 | 100 | 1.6 | 4.8 | 0.00 | 0.00 | 0.00 | 59 | 1015.2 |
| 20260903045802 | 27 | 148 | 1.6 | 3.2 | 0.00 | 0.00 | 0.00 | 59 | 1015.2 |
| 20260903045306 | 27 | 100 | 3.2 | 4.8 | 0.00 | 0.00 | 0.00 | 59 | 1015.2 |
| 20260903044802 | 27 | 123 | 1.6 | 4.8 | 0.00 | 0.00 | 0.00 | 59 | 1015.0 |
| 20260903044302 | 27 | 140 | 1.6 | 8.0 | 0.00 | 0.00 | 0.00 | 59 | 1015.0 |
| 20260903043802 | 27 | 102 | 1.6 | 4.8 | 0.00 | 0.00 | 0.00 | 58 | 1015.0 |
| 20260903043302 | 27 | 107 | 0.0 | 3.2 | 0.00 | 0.00 | 0.00 | 58 | 1015.0 |
| 20260903042802 | 27 | 278 | 0.0 | 3.2 | 0.00 | 0.00 | 0.00 | 58 | 1015.0 |
| 20260903042305 | 27 | 148 | 1.6 | 3.2 | 0.00 | 0.00 | 0.00 | 58 | 1015.0 |
| 20260903041802 | 27 | 147 | 1.6 | 3.2 | 0.00 | 0.00 | 0.00 | 57 | 1015.0 |
| 20260903041302 | 27 | 251 | 1.6 | 8.0 | 0.00 | 0.00 | 0.00 | 58 | 1015.0 |
| 20260903040804 | 27 | 100 | 1.6 | 8.0 | 0.00 | 0.00 | 0.00 | 57 | 1014.9 |
| 20260903035802 | 28 | 102 | 1.6 | 8.0 | 0.00 | 0.00 | 0.00 | 57 | 1015.1 |
| 20260903035306 | 28 | 145 | 1.6 | 4.8 | 0.00 | 0.00 | 0.00 | 57 | 1015.1 |
| 20260903034802 | 28 | 148 | 1.6 | 8.0 | 0.00 | 0.00 | 0.00 | 57 | 1015.2 |
| 20260903034302 | 28 | 115 | 0.0 | 0.0 | 0.00 | 0.00 | 0.00 | 57 | 1015.2 |
| 20260903033802 | 28 | 233 | 0.0 | 0.0 | 0.00 | 0.00 | 0.00 | 57 | 1015.2 |
| 20260903033302 | 28 | 150 | 0.0 | 0.0 | 0.00 | 0.00 | 0.00 | 57 | 1015.2 |
| 20260903032803 | 28 | 146 | 1.6 | 8.0 | 0.00 | 0.00 | 0.00 | 57 | 1015.1 |
| 20260903032305 | 28 | 159 | 1.6 | 4.8 | 0.00 | 0.00 | 0.00 | 57 | 1015.1 |
| 20260903031802 | 28 | 100 | 0.0 | 4.8 | 0.00 | 0.00 | 0.00 | 57 | 1015.1 |
| 20260903031302 | 28 | 145 | 1.6 | 3.2 | 0.00 | 0.00 | 0.00 | 57 | 1015.1 |
| 20260903030802 | 28 | 145 | 1.6 | 8.0 | 0.00 | 0.00 | 0.00 | 57 | 1015.1 |
| 20260903030302 | 28 | 106 | 1.6 | 8.0 | 0.00 | 0.00 | 0.00 | 57 | 1015.1 |
| 20260903025305 | 28 | 109 | 1.6 | 4.8 | 0.00 | 0.00 | 0.00 | 56 | 1015.1 |
| 20260903024302 | 28 | 128 | 0.0 | 0.0 | 0.00 | 0.00 | 0.00 | 56 | 1014.8 |
| 20260903023803 | 28 | 13 | 0.0 | 3.2 | 0.00 | 0.00 | 0.00 | 55 | 1014.8 |
| 20260903023302 | 28 | 58 | 0.0 | 3.2 | 0.00 | 0.00 | 0.00 | 55 | 1014.8 |
| 20260903022802 | 28 | 214 | 1.6 | 4.8 | 0.00 | 0.00 | 0.00 | 55 | 1014.7 |
| 20260903022305 | 29 | 224 | 1.6 | 8.0 | 0.00 | 0.00 | 0.00 | 55 | 1014.7 |
| 20260903021802 | 29 | 164 | 0.0 | 8.0 | 0.00 | 0.00 | 0.00 | 55 | 1014.7 |
| 20260903021302 | 29 | 337 | 1.6 | 3.2 | 0.00 | 0.00 | 0.00 | 55 | 1014.7 |
| 20260903020803 | 29 | 261 | 1.6 | 9.7 | 0.00 | 0.00 | 0.00 | 54 | 1014.8 |
| 20260903015802 | 29 | 119 | 1.6 | 4.8 | 0.00 | 0.00 | 0.00 | 54 | 1014.8 |
| 20260903014802 | 29 | 228 | 1.6 | 8.0 | 0.00 | 0.00 | 0.00 | 54 | 1014.6 |
| 20260903014302 | 30 | 311 | 1.6 | 8.0 | 0.00 | 0.00 | 0.00 | 53 | 1014.5 |
| 20260903013802 | 30 | 288 | 1.6 | 3.2 | 0.00 | 0.00 | 0.00 | 52 | 1014.5 |
| 20260903012802 | 30 | 247 | 1.6 | 4.8 | 0.00 | 0.00 | 0.00 | 50 | 1014.1 |
| 20260903012306 | 30 | 85 | 1.6 | 8.0 | 0.00 | 0.00 | 0.00 | 50 | 1014.0 |
| 20260903011803 | 30 | 281 | 1.6 | 3.2 | 0.00 | 0.00 | 0.00 | 49 | 1014.0 |
| 20260903010802 | 30 | 189 | 1.6 | 8.0 | 0.00 | 0.00 | 0.00 | 48 | 1014.2 |
| 20260903010303 | 30 | 348 | 1.6 | 3.2 | 0.00 | 0.00 | 0.00 | 47 | 1014.2 |
| 20260903005803 | 31 | 214 | 1.6 | 4.8 | 0.00 | 0.00 | 0.00 | 47 | 1014.2 |
| 20260903005306 | 31 | 86 | 1.6 | 11.3 | 0.00 | 0.00 | 0.00 | 47 | 1014.2 |
| 20260903004302 | 31 | 145 | 1.6 | 8.0 | 0.00 | 0.00 | 0.00 | 44 | 1014.1 |
| 20260903003802 | 31 | 277 | 1.6 | 4.8 | 0.00 | 0.00 | 0.00 | 43 | 1014.1 |
| 20260903003303 | 31 | 101 | 0.0 | 8.0 | 0.00 | 0.00 | 0.00 | 42 | 1014.1 |
| 20260903002802 | 32 | 170 | 1.6 | 8.0 | 0.00 | 0.00 | 0.00 | 41 | 1014.2 |
| 20260903002306 | 32 | 235 | 1.6 | 4.8 | 0.00 | 0.00 | 0.00 | 40 | 1014.2 |
| 20260903001803 | 32 | 103 | 1.6 | 4.8 | 0.00 | 0.00 | 0.00 | 38 | 1014.2 |
| 20260903001303 | 32 | 137 | 1.6 | 4.8 | 0.00 | 0.00 | 0.00 | 37 | 1014.2 |
| 20260903000303 | 33 | 163 | 3.2 | 3.2 | 0.00 | 0.00 | 0.00 | 36 | 1013.7 |
| 20260902235802 | 33 | 80 | 3.2 | 8.0 | 0.00 | 0.00 | 0.00 | 36 | 1013.7 |
| 20260902235305 | 33 | 88 | 1.6 | 4.8 | 0.00 | 0.00 | 0.00 | 35 | 1013.7 |
| 20260902233802 | 33 | 256 | 1.6 | 9.7 | 0.00 | 0.00 | 0.00 | 34 | 1013.9 |
| 20260902232802 | 34 | 350 | 3.2 | 8.0 | 0.00 | 0.00 | 0.00 | 32 | 1014.2 |
| 20260902232306 | 34 | 137 | 3.2 | 12.9 | 0.00 | 0.00 | 0.00 | 32 | 1014.2 |
| 20260902231302 | 35 | 100 | 3.2 | 9.7 | 0.00 | 0.00 | 0.00 | 29 | 1014.2 |
| 20260902230803 | 36 | 171 | 3.2 | 4.8 | 0.00 | 0.00 | 0.00 | 26 | 1014.1 |
| 20260902230302 | 37 | 129 | 1.6 | 8.0 | 0.00 | 0.00 | 0.00 | 25 | 1014.1 |
| 20260902225802 | 38 | 97 | 0.0 | 3.2 | 0.00 | 0.00 | 0.00 | 25 | 1014.1 |
| 20260902225306 | 38 | 249 | 1.6 | 4.8 | 0.00 | 0.00 | 0.00 | 24 | 1014.1 |
| 20260902224802 | 38 | 146 | 1.6 | 4.8 | 0.00 | 0.00 | 0.00 | 25 | 1013.9 |
| 20260902223803 | 38 | 144 | 3.2 | 8.0 | 0.00 | 0.00 | 0.00 | 24 | 1013.9 |
| 20260902223302 | 38 | 135 | 3.2 | 9.7 | 0.00 | 0.00 | 0.00 | 24 | 1013.9 |
| 20260902222803 | 38 | 100 | 3.2 | 9.7 | 0.00 | 0.00 | 0.00 | 26 | 1014.2 |
| 20260902222305 | 37 | 100 | 3.2 | 8.0 | 0.00 | 0.00 | 0.00 | 27 | 1014.1 |
| 20260902221803 | 37 | 100 | 3.2 | 9.7 | 0.00 | 0.00 | 0.00 | 27 | 1014.1 |
| 20260902221304 | 37 | 117 | 6.4 | 14.5 | 0.00 | 0.00 | 0.00 | 28 | 1014.1 |
| 20260902220802 | 37 | 57 | 8.0 | 22.5 | 0.00 | 0.00 | 0.00 | 28 | 1014.2 |
| 20260902215802 | 38 | 122 | 3.2 | 9.7 | 0.00 | 0.00 | 0.00 | 27 | 1014.2 |
| 20260902215306 | 37 | 122 | 3.2 | 11.3 | 0.00 | 0.00 | 0.00 | 28 | 1014.2 |
| 20260902214802 | 38 | 122 | 1.6 | 9.7 | 0.00 | 0.00 | 0.00 | 28 | 1014.4 |
| 20260902214303 | 38 | 201 | 4.8 | 9.7 | 0.00 | 0.00 | 0.00 | 27 | 1014.4 |
| 20260902213302 | 38 | 122 | 4.8 | 12.9 | 0.00 | 0.00 | 0.00 | 27 | 1014.4 |
| 20260902212803 | 38 | 57 | 3.2 | 9.7 | 0.00 | 0.00 | 0.00 | 29 | 1014.5 |
| 20260902210802 | 38 | 101 | 3.2 | 11.3 | 0.00 | 0.00 | 0.00 | 30 | 1014.8 |
| 20260902210302 | 38 | 302 | 6.4 | 9.7 | 0.00 | 0.00 | 0.00 | 32 | 1014.8 |
| 20260902205802 | 37 | 146 | 8.0 | 19.3 | 0.00 | 0.00 | 0.00 | 31 | 1014.8 |
| 20260902205306 | 37 | 126 | 4.8 | 19.3 | 0.00 | 0.00 | 0.00 | 31 | 1014.8 |
| 20260902204802 | 37 | 99 | 8.0 | 16.1 | 0.00 | 0.00 | 0.00 | 33 | 1014.9 |
| 20260902204302 | 37 | 110 | 6.4 | 16.1 | 0.00 | 0.00 | 0.00 | 32 | 1014.9 |
| 20260902203803 | 37 | 100 | 8.0 | 14.5 | 0.00 | 0.00 | 0.00 | 32 | 1014.9 |
| 20260902203304 | 37 | 135 | 4.8 | 22.5 | 0.00 | 0.00 | 0.00 | 33 | 1014.9 |